THOR ABLESTAR DEB, 122

Orbit data source: Space-Track

THOR ABLESTAR DEB, 122 is space debris in LEO originally from a launch on Thu, 29 Jun 1961 UTC launched from the Air Force Eastern Test Range (AFETR). Debris objects in space refer to the collection of defunct objects orbiting the Earth. Examples of debris include non-operational satellites, rocket bodies, and fragments generated from explosions, collisions, or faulty payload assembly.

Loading next visibility...
Identifier
122, 1961-015G
Orbit
LEO
Country
Flag of USUS
Related business
Manufacturer
Unknown
Mission
Spacecraft
Bus & Motor
Unknown
Mass
Unknown
Launch date (UTC)
1961-06-29 (65 years ago)
Launch vehicle
Unknown
Launch site
Air Force Eastern Test Range (AFETR)
Object type
Payload
Rocket body
Debris
Shape & HBR
Unknown shape, 0.5 m
Radar Cross Section
Medium (>0.1 m² and <1 m²)

Expand to show TLE details & history
Last TLE update: 1 day ago

TLE from 1 day ago
0 THOR ABLESTAR DEB
1   122U 61015G   26171.45295043  .00006518  00000-0  50836-3 0  9992
2   122  66.7387 173.6360 0040309 210.5082 149.3708 15.01207600394767
Epoch: 2026-06-20T10:52Z
TLE epoch observation values (Epoch: 2026-06-20T10:52:14.917Z)
Latitude
-0.00001°
Longitude
101.90648°
Altitude
589.459 km
Speed
7.553 km/s
True Right ascension
11h 34m 32s
True Declination
0° 00' 00"
Sunlit
Object was in daylight at epoch
Visualization orbit readout
Latitude
Unknown
Longitude
Unknown
Altitude
Unknown
Speed
Unknown
Apparent Right ascension
Unknown
Apparent Declination
Unknown
Sunlit
N/A
Visualization observer readout
Local Sidereal Time
21:45:09
Azimuth
Unknown
Elevation
Unknown
Doppler factor
Unknown
Orbital elements
Apogee altitude
589.461 km
Perigee altitude
533.515 km
Semi-major axis
6,939.625 km
Eccentricity
0.00403
Inclination
66.7387°
RAAN
173.636°
Arg. of periapsis
210.5082°
True anomaly
149.60512°
Mean anomaly
149.3708°
Eccentric anomaly
149.48806°
Mean motion
3.75439 °/min
Orbital period
95.89 mins
BSTAR
0.00050836
Loading maneuver chart data...
Computing Atmospheric mass density...

Documentation

Showing up to 5 results
|